Vacaville, CA

9:25 AM PST on February 23, 2018 (GMT -0800)
Nut Tree

Weather History for KVCB - November, 2010

Change the Weather History Date:

Friday, November 19, 2010

  Actual Average Record
Temperature  
Mean Temperature 52 °F -  
Max Temperature 57 °F 62 °F 75 °F (1989)
Min Temperature 46 °F 41 °F 27 °F (1977)
Degree Days  
Heating Degree Days 14    
Growing Degree Days 2 (Base 50)    
Moisture  
Dew Point 47 °F    
Average Humidity 79    
Maximum Humidity 93    
Minimum Humidity 69    
Precipitation  
Precipitation 0.42 in - - ()
Sea Level Pressure  
Sea Level Pressure 29.89 in    
Wind  
Wind Speed 5 mph (SW)    
Max Wind Speed 14 mph    
Max Gust Speed 21 mph    
Visibility 8 miles    
Events Rain    
Averages and records for this station are not official NWS values.
T = Trace of Precipitation, MM = Missing Value Source: NWS Daily Summary

Daily Weather History Graph

Daily Weather History Graph

Search for Another Location

Airport or City:

Trip Planner

Search our weather history database for the weather conditions in past years. The results will help you decide how hot, cold, wet, or windy it might be!

Date:

Astronomy

Nov. 19, 2010 Rise Set
Actual Time 6:53 AM PST 4:52 PM PST
Civil Twilight 6:25 AM PST 5:20 PM PST
Nautical Twilight 5:53 AM PST 5:53 PM PST
Astronomical Twilight 5:21 AM PST 6:24 PM PST
Moon 3:25 PM PST (11/19) 4:57 AM PST (11/19)
Length of Visible Light 10h 55m
Length of Day
9h 58m
Waxing Gibbous, 96% of the Moon is Illuminated
Nov 19
Waxing Gibbous
Nov 21
Full
Nov 28
Last Quarter
Dec 5
New
Dec 13
First Quarter

Hourly Weather History & Observations

Time (PST) Temp. Windchill Dew Point Humidity Pressure Visibility Wind Dir Wind Speed Gust Speed Precip Events Conditions
12:53 AM 53.1 °F - 46.0 °F 77% 29.95 in 10.0 mi West 3.5 mph - N/A   Clear
1:53 AM 53.1 °F - 46.0 °F 77% 29.94 in 10.0 mi WSW 3.5 mph - N/A   Clear
2:53 AM 55.0 °F - 46.0 °F 72% 29.94 in 10.0 mi Calm Calm - N/A   Clear
3:53 AM 55.9 °F - 46.9 °F 72% 29.93 in 10.0 mi South 5.8 mph - N/A   Clear
4:53 AM 55.0 °F - 48.0 °F 77% 29.93 in 8.0 mi SSE 5.8 mph - N/A   Clear
5:53 AM 55.0 °F - 48.0 °F 77% 29.91 in 9.0 mi SSW 4.6 mph - N/A   Mostly Cloudy
6:53 AM 55.9 °F - 48.0 °F 75% 29.92 in 10.0 mi SW 6.9 mph - N/A   Overcast
7:53 AM 55.0 °F - 48.9 °F 80% 29.93 in 9.0 mi SSW 5.8 mph - N/A   Mostly Cloudy
8:53 AM 57.0 °F - 48.9 °F 74% 29.93 in 7.0 mi Variable 3.5 mph - N/A   Partly Cloudy
9:53 AM 57.0 °F - 48.0 °F 72% 29.93 in 10.0 mi SW 11.5 mph 20.7 mph N/A   Overcast
10:49 AM 57.2 °F - 48.2 °F 72% 29.93 in 10.0 mi SW 11.5 mph 19.6 mph N/A   Overcast
10:53 AM 57.0 °F - 48.9 °F 74% 29.93 in 10.0 mi SSW 13.8 mph 19.6 mph N/A   Overcast
11:21 AM 55.4 °F - 48.2 °F 77% 29.92 in 10.0 mi SSW 10.4 mph - N/A   Overcast
11:53 AM 55.9 °F - 50.0 °F 80% 29.91 in 9.0 mi SW 9.2 mph - N/A   Overcast
12:53 PM 55.0 °F - 48.9 °F 80% 29.89 in 10.0 mi SW 8.1 mph - N/A   Overcast
1:03 PM 55.4 °F - 48.2 °F 77% 29.89 in 10.0 mi SW 5.8 mph - N/A   Overcast
1:32 PM 55.4 °F - 46.4 °F 72% 29.88 in 10.0 mi WSW 9.2 mph - N/A   Overcast
1:53 PM 55.9 °F - 46.0 °F 69% 29.87 in 10.0 mi SW 8.1 mph - N/A   Overcast
2:53 PM 55.0 °F - 46.9 °F 74% 29.86 in 7.0 mi Calm Calm - 0.00 in   Overcast
3:14 PM 55.4 °F - 46.4 °F 72% 29.85 in 6.0 mi SSW 3.5 mph - N/A   Haze
3:53 PM 54.0 °F - 46.0 °F 75% 29.85 in 10.0 mi NW 3.5 mph - N/A   Overcast
4:02 PM 53.6 °F - 46.4 °F 77% 29.85 in 10.0 mi WNW 4.6 mph - N/A   Overcast
4:53 PM 53.1 °F - 45.0 °F 74% 29.85 in 10.0 mi Calm Calm - N/A   Overcast
5:32 PM 50.0 °F - 44.6 °F 82% 29.84 in 9.0 mi NNW 6.9 mph - 0.01 in Rain Light Rain
5:53 PM 50.0 °F - 45.0 °F 83% 29.85 in 9.0 mi NNW 4.6 mph - 0.01 in Rain Light Rain
6:53 PM 48.9 °F - 46.0 °F 90% 29.86 in 4.0 mi Calm Calm - 0.06 in Rain Rain
7:53 PM 46.9 °F - 44.1 °F 90% 29.86 in 5.0 mi Calm Calm - 0.07 in Rain Light Rain
8:27 PM 46.4 °F - 44.6 °F 93% 29.86 in 3.0 mi Calm Calm - 0.03 in Rain Light Rain
8:53 PM 46.9 °F - 45.0 °F 93% 29.86 in 5.0 mi SSE 3.5 mph - 0.07 in Rain Rain
9:53 PM 46.9 °F - 44.1 °F 90% 29.87 in 3.0 mi Calm Calm - 0.11 in Rain Rain
10:53 PM 46.0 °F 43.1 °F 43.0 °F 89% 29.84 in 6.0 mi South 5.8 mph - 0.08 in Rain Light Rain
11:53 PM 46.0 °F 43.9 °F 43.0 °F 89% 29.85 in 10.0 mi South 4.6 mph - 0.02 in   Overcast